Temp
62 61 62 63 62 62 62 63 62 62 62 62 62 62 62 63 62 60 55 65 65 67 65 63 63 63 62 58 60 58 44 41 47 52 55 62 57 62 64 62 61 64 61 62 66
62 61 61 61 62 62 62 62 62 61 61 61 61 62 62 62 58 55 66 68 68 67 61 59 58 60 54 56 55 50 41 47 56 55 54 59 59 58 58 58 59 59 62 64 64
61 61 61 61 60 61 62 62 62 61 61 60 61 61 61 60 53 57 67 68 68 66 62 62 63 60 51 53 53 51 44 53 57 59 59 59 59 60 58 54 59 60 59 60 60
60 60 60 60 60 60 61 61 61 61 61 60 60 60 61 56 41 60 66 67 66 64 60 60 58 53 50 48 55 48 55 56 58 60 58 56 58 57 55 61 63 62 64 59 59
59 59 60 60 59 60 60 61 61 61 60 60 60 60 55 47 50 64 65 66 65 62 58 56 54 52 48 51 53 48 53 57 58 57 56 59 55 54 57 62 63 63 62 59 58
59 59 59 59 59 59 59 59 60 61 60 60 60 60 49 38 62 66 64 63 64 61 58 57 56 56 51 52 49 52 54 54 56 57 57 55 54 56 58 63 64 64 60 59 59
59 59 59 59 58 58 59 59 59 59 60 60 61 57 47 45 61 62 63 60 62 61 57 59 59 53 52 49 54 54 48 50 51 54 54 55 49 50 60 62 62 62 62 60 60
58 58 58 58 59 59 58 58 58 59 59 60 60 52 41 60 59 59 60 59 61 62 59 60 59 54 51 51 50 45 44 38 50 54 53 54 42 52 59 57 58 62 62 61 60
57 57 57 58 58 58 58 58 58 58 59 59 51 47 40 62 52 58 58 54 56 58 58 64 57 49 48 41 36 38 31 37 44 54 52 51 42 53 59 60 56 59 58 60 59
57 57 57 57 57 58 58 58 57 57 56 56 54 44 48 47 54 57 58 57 54 55 53 49 46 40 39 36 30 32 33 40 40 49 49 46 44 50 55 54 54 54 55 56 57
56 56 56 57 57 58 55 49 42 41 45 41 44 45 50 55 58 53 57 53 51 50 42 43 35 33 38 43 43 40 38 36 42 50 46 44 46 51 55 52 51 53 54 54 56
56 56 56 57 58 58 52 42 44 45 35 45 46 48 53 55 46 51 56 44 43 37 40 38 35 41 44 44 42 40 36 35 42 48 45 42 42 48 51 51 53 54 55 54 56
55 55 56 56 57 53 48 45 53 53 32 40 45 45 46 50 44 45 51 48 40 36 37 34 39 46 43 41 40 39 37 37 37 44 46 42 40 42 50 51 55 57 59 61 59
52 54 56 55 49 49 45 52 53 50 28 32 37 43 47 46 40 52 52 47 41 35 37 36 44 42 40 39 42 36 44 43 41 37 31 44 32 44 48 51 52 56 59 58 58
51 55 55 55 46 43 48 53 51 43 13 35 38 52 47 41 42 43 54 46 37 38 38 34 37 37 37 39 44 39 46 42 41 36 33 36 30 40 49 48 53 52 57 59 61
51 51 54 49 46 50 53 52 43 25 14 31 39 36 36 40 40 44 43 46 46 39 41 39 43 42 41 45 45 46 41 41 39 38 27 36 35 38 45 47 50 54 54 58 57
52 49 51 51 41 51 49 42 26 19 34 24 30 36 34 33 36 37 36 33 30 27 28 35 36 41 43 37 42 41 37 26 24 25 24 37 33 39 46 52 55 57 53 53 55
51 50 50 50 48 48 44 31 18 23 25 35 34 34 30 34 33 34 34 28 35 32 26 24 21 36 42 38 35 36 37 27 20 22 26 35 28 38 48 56 59 57 56 55 54
51 44 44 47 48 46 35 23 20 23 34 32 33 26 27 33 32 32 29 27 35 36 26 24 26 39 42 45 42 36 30 41 30 24 24 30 39 47 49 49 51 52 54 53 52
41 39 39 46 48 41 30 25 26 34 37 35 26 28 17 26 26 30 28 34 34 39 41 32 24 37 40 41 43 40 44 28 31 20 19 27 30 34 41 49 54 52 52 52 53
39 33 39 47 44 33 25 23 24 36 39 33 31 22 27 24 27 25 28 34 38 37 40 37 30 29 35 34 33 34 33 35 35 31 24 22 30 43 44 47 51 50 53 51 51
32 28 42 44 30 31 25 24 36 33 37 35 35 32 29 29 24 24 27 34 39 37 31 38 31 24 28 37 38 38 37 36 28 26 29 30 30 43 45 48 47 53 56 51 50
31 32 42 41 25 25 28 22 30 31 30 31 31 33 33 28 20 28 29 37 40 37 33 34 28 21 18 26 31 25 34 36 35 35 29 25 29 50 50 47 46 44 44 45 45
31 27 32 34 31 28 21 24 22 33 33 33 32 35 30 26 26 21 28 32 35 36 42 37 30 26 21 24 30 26 30 35 32 25 28 31 34 41 43 48 47 46 45 43 44
32 28 31 25 25 29 25 24 21 21 31 34 26 28 27 17 22 20 25 28 34 39 36 35 23 27 28 29 31 28 31 32 29 31 26 31 34 41 42 45 51 47 44 44 44
29 27 25 29 30 27 30 17 24 27 27 25 24 27 26 21 27 23 30 29 30 35 31 34 25 19 14 28 29 28 31 33 32 32 31 32 32 43 48 46 45 45 44 44 44
33 35 31 31 28 24 25 24 28 30 30 33 32 28 24 28 35 35 35 35 34 31 30 29 26 17 9 19 19 19 25 31 34 37 37 30 37 43 42 44 42 45 46 44 44
MSLP
1018.11 1018.17 1018.05 1017.86 1017.75 1017.76 1017.78 1017.68 1017.64 1017.75 1017.69 1017.60 1017.48 1017.32 1017.08 1016.78 1016.48 1016.30 1015.86 1014.88 1014.71 1014.66 1014.73 1014.81 1014.79 1014.53 1014.51 1014.72 1014.65 1014.78 1015.69 1015.37 1014.34 1013.43 1012.38 1011.28 1010.69 1010.23 1010.23 1010.45 1010.87 1011.49 1012.13 1012.38 1013.03
1017.85 1017.78 1017.93 1017.84 1017.59 1017.54 1017.64 1017.67 1017.68 1017.64 1017.61 1017.58 1017.42 1017.18 1016.97 1016.78 1016.57 1015.83 1014.59 1014.52 1014.57 1014.70 1014.83 1014.75 1014.76 1014.77 1014.92 1014.73 1014.83 1015.20 1015.64 1014.69 1013.29 1012.90 1012.42 1011.79 1011.38 1010.87 1010.73 1011.00 1011.51 1012.28 1012.96 1013.16 1013.49
1017.46 1017.58 1017.54 1017.69 1017.59 1017.35 1017.38 1017.47 1017.54 1017.56 1017.57 1017.49 1017.38 1017.17 1016.88 1016.66 1016.44 1014.64 1014.29 1014.28 1014.32 1014.49 1014.82 1014.65 1014.46 1014.73 1015.11 1014.85 1014.81 1014.82 1014.82 1014.09 1013.05 1012.96 1012.65 1012.32 1011.84 1011.58 1011.10 1011.48 1011.75 1012.40 1013.11 1013.52 1013.95
1017.09 1017.17 1017.27 1017.45 1017.43 1017.28 1017.25 1017.17 1017.28 1017.39 1017.50 1017.44 1017.36 1017.19 1016.88 1016.80 1016.12 1014.33 1014.19 1014.15 1014.15 1014.23 1014.86 1014.56 1014.54 1014.75 1014.85 1014.93 1014.41 1014.49 1014.00 1013.95 1013.39 1012.73 1012.77 1012.60 1012.51 1012.10 1011.83 1011.60 1011.52 1011.60 1012.34 1013.36 1013.89
1016.58 1016.73 1016.74 1017.13 1017.20 1017.01 1016.94 1017.04 1016.98 1017.18 1017.25 1017.30 1017.22 1017.24 1017.07 1016.68 1015.17 1014.28 1014.21 1014.03 1014.16 1014.45 1014.61 1014.64 1014.59 1014.56 1014.41 1014.28 1014.37 1014.41 1014.00 1013.60 1013.30 1013.21 1012.96 1012.71 1012.63 1012.73 1012.15 1011.56 1011.59 1011.87 1012.26 1013.05 1013.78
1015.70 1016.05 1016.25 1016.52 1016.81 1016.69 1016.69 1016.89 1016.83 1016.75 1016.96 1017.10 1017.10 1017.19 1017.34 1016.57 1014.42 1014.14 1014.20 1014.16 1014.07 1014.36 1014.49 1014.60 1014.50 1014.40 1014.47 1014.22 1014.39 1013.73 1013.88 1013.69 1013.46 1013.28 1012.96 1012.97 1012.72 1012.82 1011.88 1011.58 1011.59 1011.95 1012.37 1012.55 1013.00
1014.79 1015.10 1015.66 1015.56 1016.29 1016.44 1016.42 1016.67 1016.71 1016.51 1016.57 1016.83 1016.94 1017.12 1016.89 1015.51 1014.51 1014.34 1014.23 1014.17 1014.08 1014.11 1014.33 1014.30 1014.28 1014.80 1014.74 1014.61 1014.22 1013.86 1014.00 1013.64 1013.40 1013.28 1013.05 1012.99 1012.65 1012.63 1011.50 1012.10 1011.86 1012.00 1012.09 1012.21 1012.27
1013.99 1014.48 1014.80 1015.04 1015.53 1016.03 1016.12 1016.28 1016.46 1016.53 1016.35 1016.56 1016.74 1017.09 1016.06 1014.51 1014.32 1014.60 1014.35 1014.25 1014.12 1014.06 1014.21 1014.31 1014.29 1014.67 1014.91 1015.03 1014.61 1014.49 1014.42 1014.06 1013.00 1013.06 1013.20 1013.47 1012.39 1012.11 1011.61 1012.08 1011.91 1011.80 1011.72 1011.72 1011.77
1013.15 1013.71 1014.10 1014.48 1014.97 1015.50 1015.72 1015.94 1016.10 1016.37 1016.37 1016.40 1016.84 1016.98 1015.46 1013.81 1014.08 1013.89 1014.20 1014.62 1014.45 1014.26 1014.31 1014.32 1014.48 1015.07 1015.36 1015.76 1015.86 1015.13 1014.78 1014.26 1013.59 1012.72 1013.05 1013.15 1012.30 1011.70 1011.29 1011.57 1011.74 1011.48 1011.29 1011.27 1011.22
1012.33 1012.80 1013.22 1013.75 1014.47 1014.69 1015.31 1015.68 1015.91 1016.18 1016.18 1016.31 1016.24 1016.84 1015.01 1013.76 1013.45 1013.48 1013.85 1014.37 1014.91 1014.77 1014.82 1014.98 1015.33 1015.52 1015.67 1015.90 1014.97 1015.28 1015.08 1014.07 1013.29 1012.60 1012.64 1012.53 1012.09 1011.68 1011.30 1011.23 1011.33 1011.33 1010.98 1010.80 1010.75
1011.31 1011.80 1012.37 1013.01 1013.67 1014.22 1014.94 1015.65 1016.31 1016.08 1015.54 1014.55 1014.38 1014.35 1013.17 1013.22 1013.01 1013.11 1013.46 1014.24 1014.98 1015.29 1015.09 1015.39 1015.80 1014.49 1014.38 1014.63 1015.05 1014.98 1014.72 1014.26 1013.40 1012.81 1012.68 1012.42 1011.89 1011.51 1010.97 1010.92 1011.05 1010.92 1010.69 1010.37 1010.12
1010.08 1010.73 1011.35 1012.13 1012.68 1013.54 1014.14 1014.40 1014.11 1014.11 1014.58 1014.38 1014.15 1013.96 1013.36 1012.96 1013.16 1012.99 1013.16 1014.26 1014.80 1014.94 1015.70 1015.88 1014.25 1014.46 1015.00 1015.25 1015.26 1015.13 1014.79 1014.30 1013.99 1013.23 1013.00 1012.42 1011.37 1010.88 1010.46 1010.15 1009.99 1009.99 1010.01 1009.71 1009.60
1009.06 1009.73 1010.23 1011.10 1011.92 1012.64 1013.04 1013.57 1013.51 1013.67 1014.09 1013.69 1013.49 1013.51 1013.28 1013.36 1012.98 1012.81 1013.23 1013.80 1014.36 1015.00 1015.42 1015.30 1013.85 1013.59 1014.82 1014.87 1014.79 1014.49 1014.40 1014.44 1014.37 1013.71 1012.77 1012.50 1010.81 1010.53 1009.76 1009.02 1009.02 1008.73 1008.74 1008.54 1008.49
1008.16 1008.45 1008.98 1010.22 1011.42 1011.63 1012.20 1013.29 1013.59 1014.21 1014.11 1013.00 1012.69 1012.08 1012.68 1013.36 1013.02 1012.65 1012.70 1013.40 1014.05 1014.46 1015.50 1015.21 1013.74 1014.12 1014.53 1014.18 1014.21 1013.97 1013.98 1014.09 1014.28 1014.51 1013.61 1012.88 1009.14 1009.07 1008.69 1007.76 1007.67 1007.61 1007.57 1007.54 1007.42
1007.11 1007.21 1007.90 1008.80 1009.38 1010.41 1011.06 1012.32 1013.11 1014.74 1013.62 1011.42 1011.30 1010.66 1011.16 1012.37 1011.91 1011.83 1011.59 1013.06 1013.39 1013.84 1014.57 1013.11 1012.97 1013.44 1013.84 1012.75 1014.00 1013.16 1013.67 1013.77 1014.01 1013.92 1014.02 1012.94 1011.73 1006.43 1007.05 1006.42 1006.40 1006.65 1006.22 1006.10 1006.03
1006.48 1006.18 1006.75 1007.57 1008.54 1008.98 1010.17 1011.46 1013.23 1013.84 1011.52 1010.62 1010.38 1010.63 1011.55 1011.86 1011.90 1011.65 1012.01 1012.90 1013.25 1014.14 1013.80 1012.82 1012.86 1012.87 1012.53 1012.83 1013.27 1013.29 1013.47 1013.74 1013.69 1013.93 1013.64 1010.63 1011.91 1004.80 1006.59 1006.02 1005.66 1005.40 1005.24 1005.07 1005.13
1005.30 1005.49 1005.35 1006.36 1006.83 1008.18 1009.77 1010.97 1011.89 1011.02 1010.34 1010.58 1010.49 1010.68 1011.34 1011.75 1012.36 1012.22 1012.58 1013.00 1013.21 1014.06 1014.13 1013.00 1012.88 1012.77 1012.55 1012.63 1012.61 1013.02 1013.56 1013.74 1013.79 1013.33 1010.73 1010.86 1010.59 1005.45 1005.56 1005.28 1004.83 1004.65 1004.55 1004.34 1004.41
1004.34 1004.16 1003.48 1005.01 1005.60 1007.17 1008.90 1009.57 1009.42 1009.46 1009.68 1009.32 1009.92 1010.72 1011.40 1011.75 1012.20 1012.53 1012.66 1012.96 1013.27 1013.10 1013.16 1013.32 1012.62 1012.21 1011.71 1011.99 1012.14 1012.21 1012.76 1012.47 1011.96 1011.65 1010.03 1010.24 1008.83 1005.84 1005.06 1004.36 1003.89 1004.08 1003.83 1004.27 1004.25
1003.55 1003.79 1003.27 1003.36 1005.37 1006.67 1007.70 1007.97 1007.56 1007.90 1008.08 1008.48 1009.57 1010.71 1011.55 1011.56 1011.82 1012.39 1012.65 1012.72 1012.44 1012.66 1013.04 1012.68 1012.10 1011.07 1010.64 1010.87 1011.57 1011.69 1011.66 1011.25 1011.81 1011.38 1010.95 1009.21 1006.30 1005.81 1005.11 1004.67 1004.02 1003.56 1003.90 1004.13 1004.14
1003.16 1003.14 1003.14 1002.89 1004.58 1006.03 1006.39 1007.12 1007.58 1006.99 1006.88 1007.57 1008.67 1009.74 1011.04 1011.59 1012.10 1012.28 1012.32 1011.61 1011.92 1011.88 1011.96 1011.92 1011.68 1010.87 1010.48 1010.67 1010.79 1010.67 1010.78 1011.56 1011.62 1011.13 1010.05 1008.51 1006.24 1005.30 1004.50 1004.06 1003.89 1003.94 1003.61 1003.59 1003.72
1002.75 1002.50 1001.90 1002.64 1004.10 1005.64 1005.03 1006.42 1007.41 1006.56 1006.08 1007.02 1008.27 1009.50 1010.43 1011.49 1011.61 1012.05 1011.84 1011.20 1011.00 1010.89 1011.45 1011.89 1012.30 1011.37 1011.15 1010.75 1010.60 1010.70 1010.44 1010.68 1010.52 1010.37 1009.35 1008.20 1005.57 1004.99 1004.52 1004.23 1003.57 1003.30 1002.90 1003.19 1003.69
1001.38 1001.38 1001.40 1002.04 1002.73 1003.87 1004.96 1006.09 1006.31 1006.87 1006.76 1006.99 1007.63 1008.92 1010.00 1010.92 1011.53 1011.84 1011.49 1010.64 1010.34 1010.95 1011.24 1010.86 1011.46 1011.44 1011.00 1010.25 1010.33 1010.27 1010.10 1010.39 1010.06 1009.45 1008.78 1007.81 1005.22 1003.87 1003.81 1003.84 1003.86 1002.97 1002.73 1002.66 1003.07
1001.30 1000.90 1000.96 1000.79 1001.98 1003.18 1005.17 1006.18 1006.42 1006.83 1006.66 1007.44 1007.87 1008.72 1009.50 1010.67 1011.66 1011.34 1010.91 1010.30 1010.20 1010.63 1011.23 1011.51 1011.23 1011.57 1011.47 1011.04 1010.46 1010.34 1010.31 1010.44 1010.03 1009.45 1008.29 1007.45 1005.02 1005.05 1004.03 1003.91 1003.61 1003.85 1003.52 1003.34 1003.71
1000.54 1000.08 1000.32 1000.77 1001.46 1002.30 1004.82 1006.22 1006.78 1006.54 1006.85 1007.27 1007.74 1008.83 1009.89 1010.66 1011.04 1011.35 1010.94 1010.59 1010.61 1010.70 1010.70 1011.59 1011.41 1011.13 1011.28 1011.17 1010.91 1010.92 1010.61 1010.27 1010.06 1009.19 1007.51 1006.59 1005.76 1005.01 1004.71 1004.24 1003.85 1003.92 1004.12 1004.35 1004.68
999.73 999.33 998.76 999.73 1001.58 1002.80 1003.94 1005.64 1006.25 1007.06 1007.63 1007.34 1008.61 1009.16 1009.97 1011.02 1011.09 1011.22 1011.06 1010.86 1010.46 1010.42 1010.75 1011.48 1011.39 1011.75 1011.42 1011.49 1011.10 1010.85 1010.43 1009.93 1009.28 1008.48 1008.37 1006.78 1005.83 1004.30 1004.33 1004.11 1003.51 1003.82 1004.33 1004.82 1005.16
999.03 999.31 998.91 1000.08 1001.09 1003.15 1003.94 1005.15 1005.79 1006.63 1007.00 1007.37 1008.15 1008.77 1009.53 1010.04 1010.07 1010.44 1010.73 1010.73 1010.43 1010.34 1010.91 1011.47 1011.82 1012.10 1012.34 1011.81 1011.39 1010.76 1009.73 1009.17 1008.40 1008.39 1008.08 1007.33 1006.12 1003.99 1003.98 1004.12 1004.17 1003.97 1004.32 1005.06 1005.63
998.61 998.40 998.01 1000.47 1001.62 1002.87 1003.55 1004.54 1005.22 1005.82 1006.44 1006.52 1007.15 1008.27 1009.00 1008.72 1009.33 1009.93 1010.13 1010.24 1010.29 1010.67 1010.91 1011.77 1012.28 1013.27 1014.34 1013.02 1012.16 1011.06 1008.66 1007.81 1006.77 1006.13 1005.72 1005.90 1004.69 1004.42 1004.53 1004.94 1005.16 1005.33 1005.31 1005.86 1006.62
Wind_Speed
8 10 10 10 8 7 7 6 3 3 4 5 6 8 10 10 10 3 5 2 0 2 1 3 2 4 2 2 2 3 3 4 5 6 5 6 1 4 4 4 3 5 3 2 12
11 9 11 10 11 9 7 6 5 4 3 4 6 7 9 10 4 8 7 3 1 1 3 5 5 4 1 4 1 5 4 8 7 1 3 4 6 2 3 2 2 5 5 6 8
14 12 13 12 12 11 10 7 6 4 3 3 6 8 10 8 4 4 1 1 4 4 5 3 6 6 3 2 5 7 7 3 5 4 4 5 6 7 4 1 4 6 9 9 6
14 13 12 13 13 10 11 10 7 6 4 4 5 8 12 2 7 4 4 2 5 5 2 4 4 7 7 6 7 4 8 7 7 6 3 2 5 7 1 6 2 3 14 8 11
16 13 13 14 13 11 8 10 10 7 5 4 4 6 5 4 7 4 5 2 2 4 4 3 5 5 8 6 7 4 7 5 7 8 4 3 5 3 10 11 6 4 10 11 8
18 18 14 13 13 12 7 7 8 10 7 5 4 2 2 6 6 6 5 1 4 5 5 5 6 5 3 6 5 1 7 7 7 10 4 4 7 3 8 7 8 7 10 10 12
20 19 18 17 14 13 10 7 6 7 9 8 6 3 6 14 8 5 3 3 4 3 3 5 5 1 4 4 5 4 5 7 4 3 6 4 10 9 14 8 14 9 9 10 13
20 20 19 17 15 13 11 9 7 6 6 9 6 3 7 8 10 12 9 4 2 4 3 2 4 3 3 4 6 2 1 3 4 9 6 8 11 8 11 7 14 15 12 9 12
23 22 20 19 17 15 14 10 9 8 6 8 3 4 7 6 9 8 8 5 2 1 1 2 4 2 2 3 5 3 4 5 5 8 6 14 6 10 15 17 13 12 11 11 9
24 23 22 21 19 17 14 12 9 9 6 2 5 3 5 7 4 6 6 9 7 3 3 2 1 3 3 5 13 7 6 6 7 3 10 11 9 8 9 4 9 7 9 10 10
25 24 23 23 21 18 13 4 3 5 8 9 8 8 4 13 1 5 8 7 7 6 11 6 4 16 18 16 3 2 6 5 2 6 3 8 12 15 15 8 10 10 9 10 10
24 24 24 24 23 22 13 8 7 5 5 16 11 18 11 4 5 5 10 8 9 16 7 6 21 11 1 7 10 10 10 12 6 9 4 7 11 9 9 7 9 12 12 11 8
26 26 25 26 23 20 15 18 2 4 1 5 20 12 5 7 4 8 10 10 9 10 12 13 7 17 11 10 12 13 16 10 9 7 7 4 13 7 9 9 11 13 15 16 17
27 28 26 27 21 13 17 13 11 4 5 6 10 11 14 3 7 12 7 6 7 15 11 12 20 15 8 16 10 16 6 9 11 4 11 6 24 17 10 20 14 18 18 18 16
29 28 28 29 7 20 12 14 7 4 5 8 10 6 11 18 8 11 22 9 11 8 9 13 8 14 16 22 9 14 7 10 8 7 4 12 10 10 16 21 18 15 18 19 20
22 26 29 15 8 16 12 15 9 7 9 7 7 11 9 19 5 2 5 4 7 5 9 18 2 8 9 14 17 10 6 7 4 7 12 25 16 20 18 8 5 11 13 16 16
22 16 27 14 14 17 13 12 9 10 2 4 7 13 14 13 18 3 7 18 9 12 17 17 16 5 3 4 9 10 6 5 7 10 19 8 15 25 11 12 15 18 10 9 10
18 20 23 14 13 12 12 11 8 8 10 5 7 13 10 11 12 15 8 9 17 4 5 11 7 15 12 14 8 11 18 10 13 14 21 5 12 15 12 21 23 12 8 8 9
16 9 11 12 21 10 13 14 8 8 15 12 9 7 6 8 5 9 11 5 13 17 8 6 8 5 10 19 17 12 12 25 12 3 5 7 26 20 13 10 8 10 8 10 9
4 4 8 21 20 11 12 10 5 7 13 6 9 6 7 10 6 11 9 8 9 15 14 5 5 4 6 6 15 19 13 7 11 21 25 10 13 10 11 21 22 13 11 9 7
7 5 10 22 15 10 10 8 5 4 7 8 7 5 6 8 9 7 8 5 14 11 16 16 6 6 2 8 15 12 17 15 9 13 15 16 21 11 9 10 15 14 13 10 10
2 4 16 17 8 6 10 10 7 7 4 5 7 6 6 8 7 7 9 9 5 4 6 18 8 13 22 10 1 7 20 21 16 19 11 19 17 2 3 7 10 16 17 9 8
3 4 13 15 10 8 7 4 5 7 5 4 5 5 4 6 2 6 6 5 8 5 2 3 6 11 7 6 5 5 7 11 13 17 21 15 16 16 17 11 6 6 5 1 7
3 4 7 8 3 16 10 9 5 2 5 5 5 4 4 1 2 3 2 2 3 3 11 11 7 6 9 5 2 2 4 15 15 9 15 20 21 18 10 20 9 5 5 4 5
3 3 3 10 7 11 8 8 8 6 3 7 3 8 8 4 3 4 3 2 3 4 1 4 7 4 6 5 5 7 11 11 18 22 11 12 21 22 8 12 18 11 7 7 7
4 4 2 12 16 14 9 6 11 7 9 6 8 10 7 8 10 7 8 6 7 4 5 5 3 3 4 4 7 9 11 12 16 14 14 16 18 15 11 9 7 8 6 6 7
2 4 5 14 14 10 12 12 14 11 4 9 12 7 8 17 9 5 3 1 5 2 7 3 2 3 5 3 1 4 13 16 12 11 16 12 19 9 9 9 3 4 6 6 7
Wind_Direction
307 326 288 284 280 284 302 285 302 329 330 330 331 339 340 327 309 265 267 262 243 318 24 287 257 259 12 236 201 47 60 220 230 178 253 332 170 329 163 103 53 28 78 172 133
279 296 307 308 280 268 277 288 280 289 310 324 327 328 329 339 286 244 237 202 234 301 215 194 192 209 209 195 216 124 156 221 210 332 326 333 10 203 68 69 118 59 40 98 127
271 281 287 304 309 279 252 260 262 273 293 322 329 329 328 333 287 246 57 241 305 241 261 310 194 174 209 186 202 186 202 220 273 48 33 344 338 322 116 213 199 220 184 166 157
254 266 269 287 285 296 284 248 250 244 263 283 310 325 325 283 239 173 201 280 325 186 244 229 204 176 188 204 218 208 226 222 274 297 325 301 311 339 288 230 94 158 179 167 172
248 241 255 262 267 275 285 282 238 238 232 259 282 316 340 234 249 187 208 231 304 154 224 225 205 179 179 195 226 226 243 231 272 287 275 304 267 243 287 281 297 98 151 176 188
229 231 226 249 253 258 264 285 266 233 229 218 249 288 266 238 288 170 197 177 247 205 219 219 219 244 271 246 176 229 244 269 257 256 242 242 267 141 261 272 301 189 192 189 189
233 225 232 215 231 237 239 255 287 266 236 221 215 223 255 234 285 343 190 227 251 244 243 234 265 290 350 288 324 255 277 293 204 218 231 197 274 204 248 259 273 264 227 209 206
234 232 219 215 216 233 232 236 252 295 260 233 204 239 247 252 240 257 280 301 360 80 84 354 36 107 158 329 352 251 121 222 206 190 235 144 259 226 252 223 247 253 252 221 218
235 225 219 214 210 215 231 233 247 255 271 216 183 198 256 270 233 228 207 238 232 322 337 1 51 172 116 100 347 283 205 200 291 212 193 191 250 231 237 247 250 248 241 230 227
240 227 224 213 210 200 212 222 239 256 247 180 249 200 245 230 207 199 200 203 247 208 191 96 137 192 200 148 217 197 205 223 203 227 194 223 242 255 256 250 249 261 258 231 233
239 229 219 209 208 208 197 184 176 230 208 206 180 212 307 213 167 174 176 151 187 231 206 171 175 213 206 214 338 307 246 241 226 229 288 239 247 238 240 250 249 261 252 251 241
236 226 215 217 204 211 193 199 192 177 212 228 253 215 251 152 168 191 147 160 180 209 177 227 232 223 190 208 221 235 251 263 292 273 220 253 253 228 228 217 214 226 248 243 246
234 230 211 210 214 212 196 210 238 356 258 204 218 220 199 223 212 199 161 183 186 194 195 211 230 197 203 227 228 224 231 239 242 326 284 306 271 243 254 236 230 233 226 238 227
273 225 209 203 217 201 208 205 222 48 222 231 189 228 224 96 258 222 191 177 211 196 186 233 242 254 228 233 220 243 210 226 230 219 254 159 275 240 219 246 225 234 236 229 230
257 234 205 192 187 195 181 190 148 75 226 215 174 184 189 189 124 215 209 210 206 183 163 226 174 195 220 233 203 251 214 225 226 222 276 249 275 291 199 233 232 221 230 227 229
249 271 201 192 187 179 182 158 107 190 222 150 144 166 149 199 215 35 146 165 202 242 246 237 46 177 204 223 223 248 232 271 222 229 238 235 227 261 241 236 234 224 225 228 222
258 254 199 187 186 161 159 147 184 214 205 189 168 173 170 182 211 210 187 186 182 190 227 254 251 273 262 240 221 210 190 226 228 220 239 176 220 239 294 283 238 241 249 243 225
259 247 219 186 156 140 171 168 197 145 187 172 144 152 181 152 207 210 191 171 217 235 142 207 271 204 224 208 199 208 206 209 219 220 246 107 238 231 223 240 245 234 220 213 214
274 220 248 175 156 168 168 199 175 165 181 153 131 125 196 203 142 164 213 184 204 207 184 187 241 217 196 210 193 222 214 223 257 294 277 199 246 265 270 287 286 243 205 209 194
216 197 241 157 153 178 186 174 171 198 162 109 150 140 155 187 156 179 177 220 210 207 213 243 272 227 244 209 226 214 213 224 217 239 245 242 251 237 223 235 240 243 233 225 217
223 212 170 160 148 186 195 173 155 268 136 125 182 129 168 173 178 179 195 236 194 211 203 228 250 240 29 193 219 217 229 236 241 216 237 250 252 252 262 256 236 234 231 218 200
224 198 164 154 174 170 160 167 135 182 94 100 129 163 191 152 179 199 211 203 147 90 197 212 213 237 235 230 115 233 231 231 232 231 231 242 243 141 306 286 258 235 237 219 186
219 135 179 164 166 143 116 94 139 145 133 109 115 152 182 160 121 189 218 226 237 144 160 329 223 230 321 360 285 186 212 252 261 255 238 237 252 248 274 292 328 338 337 125 129
193 159 160 174 119 142 126 160 133 114 131 120 130 113 79 78 133 231 220 66 59 17 227 170 228 204 228 144 110 137 272 232 240 273 239 237 249 257 263 263 277 255 209 161 145
197 220 239 149 115 128 94 142 124 123 185 122 50 169 166 185 147 204 201 282 248 211 125 294 227 197 244 212 206 220 262 250 238 237 253 279 237 243 222 233 267 226 193 178 166
138 191 339 152 123 125 152 171 147 148 147 171 173 184 162 179 191 199 191 191 223 185 159 177 275 111 288 221 210 228 230 237 221 224 240 251 268 262 245 261 291 253 170 152 159
186 252 104 143 143 128 181 162 186 142 227 159 183 129 176 218 209 144 91 123 157 143 178 180 145 77 272 309 319 277 228 223 243 223 210 227 237 246 281 279 11 314 166 145 115